Time,TemperatureF,DewpointF,PressureIn,WindDirection,WindDirectionDegrees,WindSpeedMPH,WindSpeedGustMPH,Humidity,HourlyPrecipIn,Conditions,Clouds,dailyrainin,SoftwareType,DateUTC
2013-02-07 00:00:00,42.6,38.7,30.02,SSW,207,0.0,0.0,86,0.00,,---,0.00,VWS V12.07,2013-02-07 08:00:00,
2013-02-07 00:05:00,42.5,38.3,30.02,SSW,207,0.0,0.0,85,0.00,,---,0.00,VWS V12.07,2013-02-07 08:05:00,
2013-02-07 00:10:00,42.2,38.3,30.02,SSW,207,0.0,0.0,86,0.00,,---,0.00,VWS V12.07,2013-02-07 08:10:00,
2013-02-07 00:15:00,42.2,38.3,30.02,SSW,207,0.0,0.0,86,0.00,,---,0.00,VWS V12.07,2013-02-07 08:15:00,
2013-02-07 00:20:00,42.2,38.3,30.02,SSW,207,0.0,0.0,86,0.00,,---,0.00,VWS V12.07,2013-02-07 08:20:00,
2013-02-07 00:25:00,42.2,38.3,30.01,SSW,207,0.0,0.0,86,0.00,,---,0.00,VWS V12.07,2013-02-07 08:25:00,
2013-02-07 00:30:00,42.1,38.2,30.01,SSW,207,0.0,0.0,86,0.00,,---,0.00,VWS V12.07,2013-02-07 08:30:00,
2013-02-07 00:40:00,41.8,37.6,30.01,SSW,207,0.0,0.0,85,0.00,,---,0.00,VWS V12.07,2013-02-07 08:40:00,
2013-02-07 00:45:00,41.8,37.9,30.01,SSW,207,0.0,0.0,86,0.00,,---,0.00,VWS V12.07,2013-02-07 08:45:00,
2013-02-07 00:55:00,41.2,37.0,30.00,SSW,207,0.0,0.0,85,0.00,,---,0.00,VWS V12.07,2013-02-07 08:55:00,
2013-02-07 01:00:00,41.1,36.9,30.00,SSW,207,0.0,0.0,85,0.00,,---,0.00,VWS V12.07,2013-02-07 09:00:00,
2013-02-07 01:05:00,41.3,37.1,30.00,SSW,207,0.0,0.0,85,0.00,,---,0.00,VWS V12.07,2013-02-07 09:05:00,
2013-02-07 01:10:00,40.9,35.5,30.01,East,98,0.0,0.0,81,0.00,,---,0.00,VWS V12.07,2013-02-07 09:10:00,
2013-02-07 01:20:00,40.9,33.6,30.01,East,97,0.0,0.0,75,0.00,,---,0.00,VWS V12.07,2013-02-07 09:20:00,
2013-02-07 01:25:00,41.1,34.5,30.00,East,99,0.0,1.0,77,0.00,,---,0.00,VWS V12.07,2013-02-07 09:25:00,
2013-02-07 01:30:00,41.6,31.8,30.00,East,80,0.0,5.0,68,0.00,,---,0.00,VWS V12.07,2013-02-07 09:30:00,
2013-02-07 01:35:00,42.5,30.4,30.00,East,91,1.0,5.0,62,0.00,,---,0.00,VWS V12.07,2013-02-07 09:35:00,
2013-02-07 01:40:00,42.8,32.2,30.00,East,90,0.0,0.0,66,0.00,,---,0.00,VWS V12.07,2013-02-07 09:40:00,
2013-02-07 01:45:00,42.6,30.9,30.00,East,90,0.0,3.0,63,0.00,,---,0.00,VWS V12.07,2013-02-07 09:45:00,
2013-02-07 01:50:00,42.9,33.1,30.00,East,90,0.0,3.0,68,0.00,,---,0.00,VWS V12.07,2013-02-07 09:50:00,
2013-02-07 01:55:00,42.9,34.8,30.00,East,90,0.0,3.0,73,0.00,,---,0.00,VWS V12.07,2013-02-07 09:55:00,
2013-02-07 02:05:00,42.8,29.9,30.00,East,83,0.0,3.0,60,0.00,,---,0.00,VWS V12.07,2013-02-07 10:05:00,
2013-02-07 02:10:00,43.3,32.0,30.00,East,81,0.0,0.0,64,0.00,,---,0.00,VWS V12.07,2013-02-07 10:10:00,
2013-02-07 02:20:00,43.3,30.4,30.00,East,82,0.0,1.0,60,0.00,,---,0.00,VWS V12.07,2013-02-07 10:20:00,
2013-02-07 02:25:00,43.3,33.1,30.00,East,82,0.0,1.0,67,0.00,,---,0.00,VWS V12.07,2013-02-07 10:25:00,
2013-02-07 02:30:00,43.1,31.8,30.00,East,80,0.0,1.0,64,0.00,,---,0.00,VWS V12.07,2013-02-07 10:30:00,
2013-02-07 02:35:00,42.8,30.7,30.00,East,80,0.0,1.0,62,0.00,,---,0.00,VWS V12.07,2013-02-07 10:35:00,
2013-02-07 02:40:00,42.8,31.9,30.00,East,80,0.0,0.0,65,0.00,,---,0.00,VWS V12.07,2013-02-07 10:40:00,
2013-02-07 02:45:00,42.5,32.7,30.00,East,80,0.0,0.0,68,0.00,,---,0.00,VWS V12.07,2013-02-07 10:45:00,
2013-02-07 02:50:00,42.5,33.8,30.00,East,80,0.0,0.0,71,0.00,,---,0.00,VWS V12.07,2013-02-07 10:50:00,
2013-02-07 02:55:00,42.5,34.5,30.00,East,80,0.0,0.0,73,0.00,,---,0.00,VWS V12.07,2013-02-07 10:55:00,
2013-02-07 03:00:00,42.3,34.6,30.00,East,80,0.0,0.0,74,0.00,,---,0.00,VWS V12.07,2013-02-07 11:00:00,
2013-02-07 03:05:00,42.2,34.5,30.00,East,80,0.0,0.0,74,0.00,,---,0.00,VWS V12.07,2013-02-07 11:05:00,
2013-02-07 03:10:00,42.2,34.5,29.99,East,80,0.0,0.0,74,0.00,,---,0.00,VWS V12.07,2013-02-07 11:10:00,
2013-02-07 03:15:00,42.1,34.4,29.99,East,80,0.0,0.0,74,0.00,,---,0.00,VWS V12.07,2013-02-07 11:15:00,
2013-02-07 03:20:00,41.9,34.2,29.99,East,80,0.0,0.0,74,0.00,,---,0.00,VWS V12.07,2013-02-07 11:20:00,
2013-02-07 03:25:00,41.8,34.1,30.00,East,80,0.0,0.0,74,0.00,,---,0.00,VWS V12.07,2013-02-07 11:25:00,
2013-02-07 03:30:00,41.8,34.5,30.00,East,80,0.0,0.0,75,0.00,,---,0.00,VWS V12.07,2013-02-07 11:30:00,
2013-02-07 03:35:00,41.3,33.7,30.00,East,80,0.0,0.0,74,0.00,,---,0.00,VWS V12.07,2013-02-07 11:35:00,
2013-02-07 03:40:00,41.1,33.1,30.00,East,80,0.0,0.0,73,0.00,,---,0.00,VWS V12.07,2013-02-07 11:40:00,
2013-02-07 03:45:00,40.8,32.5,30.00,East,80,0.0,0.0,72,0.00,,---,0.00,VWS V12.07,2013-02-07 11:45:00,
2013-02-07 03:50:00,40.6,32.3,30.00,East,80,0.0,0.0,72,0.00,,---,0.00,VWS V12.07,2013-02-07 11:50:00,
2013-02-07 03:55:00,40.8,32.8,30.00,East,80,0.0,0.0,73,0.00,,---,0.00,VWS V12.07,2013-02-07 11:55:00,
2013-02-07 04:05:00,40.6,32.3,30.00,East,80,0.0,0.0,72,0.00,,---,0.00,VWS V12.07,2013-02-07 12:05:00,
2013-02-07 04:10:00,40.8,32.8,29.99,East,80,0.0,0.0,73,0.00,,---,0.00,VWS V12.07,2013-02-07 12:10:00,
2013-02-07 04:15:00,40.9,33.3,29.99,East,80,0.0,0.0,74,0.00,,---,0.00,VWS V12.07,2013-02-07 12:15:00,
2013-02-07 04:20:00,40.8,32.5,29.99,East,81,0.0,1.0,72,0.00,,---,0.00,VWS V12.07,2013-02-07 12:20:00,
2013-02-07 04:25:00,40.8,32.1,30.00,East,81,0.0,1.0,71,0.00,,---,0.00,VWS V12.07,2013-02-07 12:25:00,
2013-02-07 04:30:00,40.6,31.2,30.00,East,81,0.0,1.0,69,0.00,,---,0.00,VWS V12.07,2013-02-07 12:30:00,
2013-02-07 04:35:00,40.3,29.9,30.00,East,81,0.0,1.0,66,0.00,,---,0.00,VWS V12.07,2013-02-07 12:35:00,
2013-02-07 04:40:00,40.3,29.5,30.00,East,81,0.0,0.0,65,0.00,,---,0.00,VWS V12.07,2013-02-07 12:40:00,
2013-02-07 04:45:00,40.2,29.4,30.00,East,81,0.0,0.0,65,0.00,,---,0.00,VWS V12.07,2013-02-07 12:45:00,
2013-02-07 04:50:00,40.1,29.7,30.00,East,81,0.0,0.0,66,0.00,,---,0.00,VWS V12.07,2013-02-07 12:50:00,
2013-02-07 04:55:00,40.1,30.0,30.00,East,81,0.0,0.0,67,0.00,,---,0.00,VWS V12.07,2013-02-07 12:55:00,
2013-02-07 05:00:00,40.1,30.0,30.00,East,81,0.0,0.0,67,0.00,,---,0.00,VWS V12.07,2013-02-07 13:00:00,
2013-02-07 05:10:00,40.8,32.5,30.01,East,81,0.0,0.0,72,0.00,,---,0.00,VWS V12.07,2013-02-07 13:10:00,
2013-02-07 05:20:00,40.9,32.2,30.01,East,81,0.0,0.0,71,0.00,,---,0.00,VWS V12.07,2013-02-07 13:20:00,
2013-02-07 05:25:00,40.8,31.8,30.02,East,81,0.0,0.0,70,0.00,,---,0.00,VWS V12.07,2013-02-07 13:25:00,
2013-02-07 05:30:00,40.8,30.7,30.02,East,81,0.0,0.0,67,0.00,,---,0.00,VWS V12.07,2013-02-07 13:30:00,
2013-02-07 05:35:00,41.1,32.4,30.02,East,81,0.0,0.0,71,0.00,,---,0.00,VWS V12.07,2013-02-07 13:35:00,
2013-02-07 05:40:00,40.9,30.8,30.02,East,81,0.0,0.0,67,0.00,,---,0.00,VWS V12.07,2013-02-07 13:40:00,
2013-02-07 05:50:00,41.2,32.5,30.02,East,81,0.0,0.0,71,0.00,,---,0.00,VWS V12.07,2013-02-07 13:50:00,
2013-02-07 05:55:00,41.5,33.8,30.02,East,81,0.0,0.0,74,0.00,,---,0.00,VWS V12.07,2013-02-07 13:55:00,
2013-02-07 06:00:00,41.3,33.7,30.02,East,81,0.0,0.0,74,0.00,,---,0.00,VWS V12.07,2013-02-07 14:00:00,
2013-02-07 06:05:00,41.3,34.0,30.02,East,81,0.0,0.0,75,0.00,,---,0.00,VWS V12.07,2013-02-07 14:05:00,
2013-02-07 06:10:00,41.5,34.8,30.02,East,81,0.0,0.0,77,0.00,,---,0.00,VWS V12.07,2013-02-07 14:10:00,
2013-02-07 06:15:00,41.1,33.5,30.02,East,81,0.0,2.0,74,0.00,,---,0.00,VWS V12.07,2013-02-07 14:15:00,
2013-02-07 06:20:00,40.6,32.3,30.02,East,81,0.0,2.0,72,0.00,,---,0.00,VWS V12.07,2013-02-07 14:20:00,
2013-02-07 06:25:00,40.5,31.5,30.03,East,81,0.0,2.0,70,0.00,,---,0.00,VWS V12.07,2013-02-07 14:25:00,
2013-02-07 06:30:00,40.3,31.0,30.03,East,81,0.0,2.0,69,0.00,,---,0.00,VWS V12.07,2013-02-07 14:30:00,
2013-02-07 06:40:00,40.1,28.9,30.03,East,82,1.0,1.0,64,0.00,,---,0.00,VWS V12.07,2013-02-07 14:40:00,
2013-02-07 06:45:00,40.8,28.4,30.03,East,100,0.0,5.0,61,0.00,,---,0.00,VWS V12.07,2013-02-07 14:45:00,
2013-02-07 06:50:00,40.9,29.7,30.03,East,98,0.0,5.0,64,0.00,,---,0.00,VWS V12.07,2013-02-07 14:50:00,
2013-02-07 06:55:00,41.1,30.6,30.03,East,92,0.0,5.0,66,0.00,,---,0.00,VWS V12.07,2013-02-07 14:55:00,
2013-02-07 07:00:00,41.3,31.2,30.03,East,92,0.0,5.0,67,0.00,,---,0.00,VWS V12.07,2013-02-07 15:00:00,
2013-02-07 07:05:00,41.6,31.8,30.03,East,92,0.0,5.0,68,0.00,,---,0.00,VWS V12.07,2013-02-07 15:05:00,
2013-02-07 07:10:00,41.6,32.2,30.03,East,92,0.0,0.0,69,0.00,,---,0.00,VWS V12.07,2013-02-07 15:10:00,
2013-02-07 07:15:00,41.5,31.4,30.03,East,92,0.0,0.0,67,0.00,,---,0.00,VWS V12.07,2013-02-07 15:15:00,
2013-02-07 07:20:00,41.5,32.5,30.03,East,92,0.0,0.0,70,0.00,,---,0.00,VWS V12.07,2013-02-07 15:20:00,
2013-02-07 07:25:00,41.6,32.9,30.04,East,92,0.0,0.0,71,0.00,,---,0.00,VWS V12.07,2013-02-07 15:25:00,
2013-02-07 07:30:00,41.5,30.2,30.04,East,92,0.0,0.0,64,0.00,,---,0.00,VWS V12.07,2013-02-07 15:30:00,
2013-02-07 07:35:00,41.8,30.5,30.04,East,92,0.0,0.0,64,0.00,,---,0.00,VWS V12.07,2013-02-07 15:35:00,
2013-02-07 07:40:00,41.9,30.2,30.04,East,92,0.0,0.0,63,0.00,,---,0.00,VWS V12.07,2013-02-07 15:40:00,
2013-02-07 07:45:00,42.1,28.0,30.04,East,92,0.0,2.0,57,0.00,,---,0.00,VWS V12.07,2013-02-07 15:45:00,
2013-02-07 07:50:00,42.3,28.2,30.04,East,92,0.0,2.0,57,0.00,,---,0.00,VWS V12.07,2013-02-07 15:50:00,
2013-02-07 07:55:00,42.9,29.6,30.05,East,92,0.0,2.0,59,0.00,,---,0.00,VWS V12.07,2013-02-07 15:55:00,
2013-02-07 08:00:00,43.3,30.0,30.05,East,92,0.0,2.0,59,0.00,,---,0.00,VWS V12.07,2013-02-07 16:00:00,
2013-02-07 08:05:00,43.6,30.2,30.05,East,92,0.0,2.0,59,0.00,,---,0.00,VWS V12.07,2013-02-07 16:05:00,
2013-02-07 08:10:00,44.1,28.1,30.06,East,92,0.0,0.0,53,0.00,,---,0.00,VWS V12.07,2013-02-07 16:10:00,
2013-02-07 08:15:00,44.8,28.7,30.06,East,92,0.0,0.0,53,0.00,,---,0.00,VWS V12.07,2013-02-07 16:15:00,
2013-02-07 08:20:00,45.1,29.0,30.06,East,92,0.0,0.0,53,0.00,,---,0.00,VWS V12.07,2013-02-07 16:20:00,
2013-02-07 08:25:00,45.5,28.9,30.06,East,92,0.0,0.0,52,0.00,,---,0.00,VWS V12.07,2013-02-07 16:25:00,
2013-02-07 08:30:00,46.2,30.9,30.06,East,92,0.0,0.0,55,0.00,,---,0.00,VWS V12.07,2013-02-07 16:30:00,
2013-02-07 08:35:00,47.0,33.0,30.06,East,100,0.0,0.0,58,0.00,,---,0.00,VWS V12.07,2013-02-07 16:35:00,
2013-02-07 08:40:00,47.6,34.8,30.06,East,100,0.0,0.0,61,0.00,,---,0.00,VWS V12.07,2013-02-07 16:40:00,
2013-02-07 08:45:00,47.9,33.4,30.06,East,100,0.0,1.0,57,0.00,,---,0.00,VWS V12.07,2013-02-07 16:45:00,
2013-02-07 08:50:00,48.3,34.2,30.06,East,100,0.0,3.0,58,0.00,,---,0.00,VWS V12.07,2013-02-07 16:50:00,
2013-02-07 08:55:00,48.5,33.5,30.05,East,100,0.0,3.0,56,0.00,,---,0.00,VWS V12.07,2013-02-07 16:55:00,
2013-02-07 09:00:00,48.8,34.7,30.05,East,100,0.0,3.0,58,0.00,,---,0.00,VWS V12.07,2013-02-07 17:00:00,
2013-02-07 09:05:00,48.9,33.5,30.05,East,100,0.0,3.0,55,0.00,,---,0.00,VWS V12.07,2013-02-07 17:05:00,
2013-02-07 09:10:00,49.4,33.5,30.05,East,100,0.0,0.0,54,0.00,,---,0.00,VWS V12.07,2013-02-07 17:10:00,
2013-02-07 09:15:00,49.9,34.8,30.05,East,100,0.0,0.0,56,0.00,,---,0.00,VWS V12.07,2013-02-07 17:15:00,
2013-02-07 09:20:00,50.5,37.2,30.05,SSE,158,0.0,0.0,60,0.00,,---,0.00,VWS V12.07,2013-02-07 17:20:00,
2013-02-07 09:25:00,50.8,37.8,30.05,SSE,158,0.0,1.0,61,0.00,,---,0.00,VWS V12.07,2013-02-07 17:25:00,
2013-02-07 09:30:00,51.1,38.5,30.05,SSE,160,0.0,3.0,62,0.00,,---,0.00,VWS V12.07,2013-02-07 17:30:00,
2013-02-07 09:35:00,51.7,39.1,30.05,SSE,160,0.0,3.0,62,0.00,,---,0.00,VWS V12.07,2013-02-07 17:35:00,
2013-02-07 09:40:00,51.9,39.3,30.05,SSW,210,0.0,1.0,62,0.00,,---,0.00,VWS V12.07,2013-02-07 17:40:00,
2013-02-07 09:45:00,52.3,39.7,30.05,SSW,209,0.0,3.0,62,0.00,,---,0.00,VWS V12.07,2013-02-07 17:45:00,
2013-02-07 09:50:00,52.3,39.7,30.05,SSW,210,1.0,3.0,62,0.00,,---,0.00,VWS V12.07,2013-02-07 17:50:00,
2013-02-07 09:55:00,52.5,39.9,30.05,SSW,212,0.0,4.0,62,0.00,,---,0.00,VWS V12.07,2013-02-07 17:55:00,
2013-02-07 10:00:00,52.5,40.3,30.05,SSW,212,0.0,4.0,63,0.00,,---,0.00,VWS V12.07,2013-02-07 18:00:00,
2013-02-07 10:05:00,52.8,41.0,30.05,SSW,211,0.0,5.0,64,0.00,,---,0.00,VWS V12.07,2013-02-07 18:05:00,
2013-02-07 10:10:00,53.1,41.3,30.04,SW,216,1.0,5.0,64,0.00,,---,0.00,VWS V12.07,2013-02-07 18:10:00,
2013-02-07 10:15:00,53.2,41.3,30.04,SW,223,0.0,5.0,64,0.00,,---,0.00,VWS V12.07,2013-02-07 18:15:00,
2013-02-07 10:20:00,53.5,41.2,30.04,SSW,209,3.0,5.0,63,0.00,,---,0.00,VWS V12.07,2013-02-07 18:20:00,
2013-02-07 10:25:00,53.6,41.7,30.04,SSW,210,0.0,5.0,64,0.00,,---,0.00,VWS V12.07,2013-02-07 18:25:00,
2013-02-07 10:30:00,54.2,41.9,30.04,SSW,211,0.0,5.0,63,0.00,,---,0.00,VWS V12.07,2013-02-07 18:30:00,
2013-02-07 10:35:00,54.8,42.5,30.04,SSW,211,0.0,5.0,63,0.00,,---,0.00,VWS V12.07,2013-02-07 18:35:00,
2013-02-07 10:40:00,54.5,42.2,30.04,SSW,211,0.0,7.0,63,0.00,,---,0.00,VWS V12.07,2013-02-07 18:40:00,
2013-02-07 10:45:00,54.4,42.9,30.04,SW,221,2.0,7.0,65,0.00,,---,0.00,VWS V12.07,2013-02-07 18:45:00,
2013-02-07 10:50:00,54.2,42.7,30.04,South,184,0.0,7.0,65,0.00,,---,0.00,VWS V12.07,2013-02-07 18:50:00,
2013-02-07 10:55:00,54.4,42.9,30.04,SSW,202,2.0,7.0,65,0.00,,---,0.00,VWS V12.07,2013-02-07 18:55:00,
2013-02-07 11:00:00,54.4,42.9,30.04,SW,215,3.0,7.0,65,0.00,,---,0.00,VWS V12.07,2013-02-07 19:00:00,
2013-02-07 11:05:00,54.4,43.3,30.04,SW,227,0.0,7.0,66,0.00,,---,0.00,VWS V12.07,2013-02-07 19:05:00,
2013-02-07 11:10:00,54.7,43.6,30.03,SSW,205,0.0,3.0,66,0.00,,---,0.00,VWS V12.07,2013-02-07 19:10:00,
2013-02-07 11:15:00,54.7,43.2,30.03,SSW,210,0.0,5.0,65,0.00,,---,0.00,VWS V12.07,2013-02-07 19:15:00,
2013-02-07 11:20:00,54.8,43.3,30.03,South,191,0.0,8.0,65,0.00,,---,0.00,VWS V12.07,2013-02-07 19:20:00,
2013-02-07 11:25:00,55.3,43.3,30.03,SSW,205,2.0,8.0,64,0.00,,---,0.00,VWS V12.07,2013-02-07 19:25:00,
2013-02-07 11:30:00,55.7,43.3,30.03,SSW,208,5.0,8.0,63,0.00,,---,0.00,VWS V12.07,2013-02-07 19:30:00,
2013-02-07 11:35:00,55.6,43.6,30.03,SSW,193,0.0,8.0,64,0.00,,---,0.00,VWS V12.07,2013-02-07 19:35:00,
2013-02-07 11:40:00,55.6,43.2,30.03,SW,220,0.0,0.0,63,0.00,,---,0.00,VWS V12.07,2013-02-07 19:40:00,
2013-02-07 11:45:00,55.7,43.3,30.03,SW,217,0.0,3.0,63,0.00,,---,0.00,VWS V12.07,2013-02-07 19:45:00,
2013-02-07 11:50:00,55.9,43.5,30.03,SW,219,0.0,3.0,63,0.00,,---,0.00,VWS V12.07,2013-02-07 19:50:00,
2013-02-07 11:55:00,56.2,43.8,30.02,SSW,207,0.0,3.0,63,0.00,,---,0.00,VWS V12.07,2013-02-07 19:55:00,
2013-02-07 12:00:00,56.6,43.3,30.02,South,189,0.0,3.0,61,0.00,,---,0.00,VWS V12.07,2013-02-07 20:00:00,
2013-02-07 12:05:00,57.0,43.3,30.02,SSW,209,1.0,3.0,60,0.00,,---,0.00,VWS V12.07,2013-02-07 20:05:00,
2013-02-07 12:10:00,57.0,43.3,30.01,SSW,200,0.0,4.0,60,0.00,,---,0.00,VWS V12.07,2013-02-07 20:10:00,
2013-02-07 12:15:00,56.6,43.3,30.01,SSW,210,0.0,4.0,61,0.00,,---,0.00,VWS V12.07,2013-02-07 20:15:00,
2013-02-07 12:20:00,57.0,43.7,30.01,WSW,238,0.0,4.0,61,0.00,,---,0.00,VWS V12.07,2013-02-07 20:20:00,
2013-02-07 12:25:00,58.0,43.8,29.99,SW,219,3.0,6.0,59,0.00,,---,0.00,VWS V12.07,2013-02-07 20:25:00,
2013-02-07 12:30:00,57.8,44.0,29.99,SSW,209,0.0,8.0,60,0.00,,---,0.00,VWS V12.07,2013-02-07 20:30:00,
2013-02-07 12:35:00,57.5,43.7,29.99,SW,215,0.0,8.0,60,0.00,,---,0.00,VWS V12.07,2013-02-07 20:35:00,
2013-02-07 12:40:00,57.5,43.3,29.99,SW,215,0.0,7.0,59,0.00,,---,0.00,VWS V12.07,2013-02-07 20:40:00,
2013-02-07 12:45:00,57.8,44.0,29.99,SW,220,1.0,7.0,60,0.00,,---,0.00,VWS V12.07,2013-02-07 20:45:00,
2013-02-07 12:50:00,58.4,44.1,29.99,SSW,196,0.0,7.0,59,0.00,,---,0.00,VWS V12.07,2013-02-07 20:50:00,
2013-02-07 12:55:00,58.7,43.5,29.98,SW,218,0.0,10.0,57,0.00,,---,0.00,VWS V12.07,2013-02-07 20:55:00,
2013-02-07 13:00:00,58.7,44.4,29.98,SW,222,0.0,10.0,59,0.00,,---,0.00,VWS V12.07,2013-02-07 21:00:00,
2013-02-07 13:05:00,58.7,44.0,29.98,SW,215,2.0,10.0,58,0.00,,---,0.00,VWS V12.07,2013-02-07 21:05:00,
2013-02-07 13:10:00,58.6,44.3,29.97,SW,222,1.0,5.0,59,0.00,,---,0.00,VWS V12.07,2013-02-07 21:10:00,
2013-02-07 13:15:00,58.7,44.4,29.97,SW,227,1.0,7.0,59,0.00,,---,0.00,VWS V12.07,2013-02-07 21:15:00,
2013-02-07 13:25:00,58.9,44.2,29.96,SW,219,1.0,10.0,58,0.00,,---,0.00,VWS V12.07,2013-02-07 21:25:00,
2013-02-07 13:30:00,59.0,44.3,29.96,SW,225,1.0,10.0,58,0.00,,---,0.00,VWS V12.07,2013-02-07 21:30:00,
2013-02-07 13:35:00,59.2,45.3,29.96,South,180,0.0,10.0,60,0.00,,---,0.00,VWS V12.07,2013-02-07 21:35:00,
2013-02-07 13:40:00,59.0,44.7,29.95,SSW,208,2.0,6.0,59,0.00,,---,0.00,VWS V12.07,2013-02-07 21:40:00,
2013-02-07 13:45:00,58.7,44.4,29.95,SSW,200,4.0,7.0,59,0.00,,---,0.00,VWS V12.07,2013-02-07 21:45:00,
2013-02-07 13:50:00,59.0,44.7,29.95,South,186,0.0,7.0,59,0.00,,---,0.00,VWS V12.07,2013-02-07 21:50:00,
2013-02-07 13:55:00,59.3,44.5,29.94,SW,220,0.0,7.0,58,0.00,,---,0.00,VWS V12.07,2013-02-07 21:55:00,
2013-02-07 14:00:00,59.2,44.5,29.94,South,173,0.0,7.0,58,0.00,,---,0.00,VWS V12.07,2013-02-07 22:00:00,
2013-02-07 14:05:00,58.9,44.6,29.94,South,180,0.0,7.0,59,0.00,,---,0.00,VWS V12.07,2013-02-07 22:05:00,
2013-02-07 14:10:00,58.9,44.6,29.94,South,184,2.0,7.0,59,0.00,,---,0.00,VWS V12.07,2013-02-07 22:10:00,
2013-02-07 14:15:00,58.4,44.6,29.94,SSW,195,0.0,11.0,60,0.00,,---,0.00,VWS V12.07,2013-02-07 22:15:00,
2013-02-07 14:20:00,58.6,44.8,29.94,SSW,195,2.0,11.0,60,0.00,,---,0.00,VWS V12.07,2013-02-07 22:20:00,
2013-02-07 14:25:00,59.0,44.7,29.94,SSW,205,0.0,11.0,59,0.00,,---,0.00,VWS V12.07,2013-02-07 22:25:00,
2013-02-07 14:30:00,58.9,44.6,29.94,SSW,201,0.0,11.0,59,0.00,,---,0.00,VWS V12.07,2013-02-07 22:30:00,
2013-02-07 14:35:00,58.6,44.8,29.94,SSW,198,0.0,11.0,60,0.00,,---,0.00,VWS V12.07,2013-02-07 22:35:00,
2013-02-07 14:40:00,58.1,44.7,29.94,SW,223,2.0,5.0,61,0.00,,---,0.00,VWS V12.07,2013-02-07 22:40:00,
2013-02-07 14:45:00,57.8,44.5,29.94,SW,227,2.0,7.0,61,0.00,,---,0.00,VWS V12.07,2013-02-07 22:45:00,
2013-02-07 14:50:00,57.2,44.7,29.94,SSW,211,0.0,7.0,63,0.00,,---,0.00,VWS V12.07,2013-02-07 22:50:00,
2013-02-07 14:55:00,56.9,44.9,29.94,South,184,2.0,7.0,64,0.00,,---,0.00,VWS V12.07,2013-02-07 22:55:00,
2013-02-07 15:00:00,56.7,44.7,29.94,South,178,0.0,7.0,64,0.00,,---,0.00,VWS V12.07,2013-02-07 23:00:00,
2013-02-07 15:05:00,56.6,44.6,29.94,SW,228,0.0,7.0,64,0.00,,---,0.00,VWS V12.07,2013-02-07 23:05:00,
2013-02-07 15:10:00,56.0,44.0,29.94,SW,218,0.0,10.0,64,0.00,,---,0.00,VWS V12.07,2013-02-07 23:10:00,
2013-02-07 15:15:00,55.3,44.2,29.94,SW,221,4.0,10.0,66,0.00,,---,0.00,VWS V12.07,2013-02-07 23:15:00,
2013-02-07 15:20:00,54.7,44.0,29.94,SW,231,3.0,10.0,67,0.00,,---,0.00,VWS V12.07,2013-02-07 23:20:00,
2013-02-07 15:25:00,54.2,43.9,29.95,SW,214,7.0,10.0,68,0.00,,---,0.00,VWS V12.07,2013-02-07 23:25:00,
2013-02-07 15:30:00,54.1,43.8,29.95,SSW,205,2.0,10.0,68,0.00,,---,0.00,VWS V12.07,2013-02-07 23:30:00,
2013-02-07 15:35:00,53.9,43.6,29.95,SSW,206,0.0,10.0,68,0.00,,---,0.00,VWS V12.07,2013-02-07 23:35:00,
2013-02-07 15:40:00,53.9,43.6,29.95,SW,227,0.0,5.0,68,0.00,,---,0.00,VWS V12.07,2013-02-07 23:40:00,
2013-02-07 15:45:00,53.8,43.9,29.95,SW,219,4.0,5.0,69,0.00,,---,0.00,VWS V12.07,2013-02-07 23:45:00,
2013-02-07 15:50:00,53.9,44.0,29.95,South,190,0.0,5.0,69,0.00,,---,0.00,VWS V12.07,2013-02-07 23:50:00,
2013-02-07 15:55:00,54.1,43.8,29.94,South,184,0.0,5.0,68,0.00,,---,0.00,VWS V12.07,2013-02-07 23:55:00,
2013-02-07 16:00:00,54.1,44.2,29.94,SSW,212,3.0,5.0,69,0.00,,---,0.00,VWS V12.07,2013-02-08 00:00:00,
2013-02-07 16:10:00,53.8,43.9,29.94,SSW,198,0.0,0.0,69,0.00,,---,0.00,VWS V12.07,2013-02-08 00:10:00,
2013-02-07 16:15:00,53.6,43.7,29.94,South,188,0.0,3.0,69,0.00,,---,0.00,VWS V12.07,2013-02-08 00:15:00,
2013-02-07 16:20:00,53.5,43.6,29.94,South,188,0.0,3.0,69,0.00,,---,0.00,VWS V12.07,2013-02-08 00:20:00,
2013-02-07 16:25:00,53.5,43.6,29.94,South,188,0.0,3.0,69,0.00,,---,0.00,VWS V12.07,2013-02-08 00:25:00,
2013-02-07 16:30:00,53.5,43.6,29.94,SSW,201,0.0,4.0,69,0.00,,---,0.00,VWS V12.07,2013-02-08 00:30:00,
2013-02-07 16:35:00,53.3,43.4,29.94,SSW,193,0.0,4.0,69,0.00,,---,0.00,VWS V12.07,2013-02-08 00:35:00,
2013-02-07 16:40:00,53.2,43.7,29.94,SSW,192,0.0,0.0,70,0.00,,---,0.00,VWS V12.07,2013-02-08 00:40:00,
2013-02-07 16:45:00,52.8,43.3,29.94,South,184,0.0,3.0,70,0.00,,---,0.00,VWS V12.07,2013-02-08 00:45:00,
2013-02-07 16:50:00,52.6,43.5,29.94,SW,217,0.0,3.0,71,0.00,,---,0.00,VWS V12.07,2013-02-08 00:50:00,
2013-02-07 16:55:00,52.5,43.4,29.94,SW,219,0.0,3.0,71,0.00,,---,0.00,VWS V12.07,2013-02-08 00:55:00,
2013-02-07 17:00:00,52.2,43.5,29.94,South,186,0.0,6.0,72,0.00,,---,0.00,VWS V12.07,2013-02-08 01:00:00,
2013-02-07 17:05:00,52.0,43.3,29.94,South,173,0.0,6.0,72,0.00,,---,0.00,VWS V12.07,2013-02-08 01:05:00,
2013-02-07 17:10:00,52.0,43.6,29.94,South,181,0.0,0.0,73,0.00,,---,0.00,VWS V12.07,2013-02-08 01:10:00,
2013-02-07 17:15:00,51.9,43.5,29.94,SW,220,0.0,3.0,73,0.00,,---,0.00,VWS V12.07,2013-02-08 01:15:00,
2013-02-07 17:20:00,51.7,43.3,29.94,SW,220,1.0,3.0,73,0.00,,---,0.00,VWS V12.07,2013-02-08 01:20:00,
2013-02-07 17:25:00,51.4,43.0,29.94,South,175,0.0,7.0,73,0.00,,---,0.00,VWS V12.07,2013-02-08 01:25:00,
2013-02-07 17:30:00,51.1,43.1,29.94,SW,231,0.0,7.0,74,0.00,,---,0.00,VWS V12.07,2013-02-08 01:30:00,
2013-02-07 17:35:00,51.0,43.0,29.94,South,182,0.0,7.0,74,0.00,,---,0.00,VWS V12.07,2013-02-08 01:35:00,
2013-02-07 17:40:00,50.8,42.8,29.94,South,176,0.0,2.0,74,0.00,,---,0.00,VWS V12.07,2013-02-08 01:40:00,
2013-02-07 17:45:00,50.5,42.5,29.94,South,184,0.0,2.0,74,0.00,,---,0.00,VWS V12.07,2013-02-08 01:45:00,
2013-02-07 17:50:00,50.4,42.8,29.94,SSE,160,0.0,2.0,75,0.00,,---,0.00,VWS V12.07,2013-02-08 01:50:00,
2013-02-07 17:55:00,50.4,42.8,29.94,SSW,199,0.0,2.0,75,0.00,,---,0.00,VWS V12.07,2013-02-08 01:55:00,
2013-02-07 18:00:00,50.2,42.6,29.94,SSW,198,0.0,2.0,75,0.00,,---,0.00,VWS V12.07,2013-02-08 02:00:00,
2013-02-07 18:05:00,50.2,42.6,29.94,SSW,198,0.0,2.0,75,0.00,,---,0.00,VWS V12.07,2013-02-08 02:05:00,
2013-02-07 18:10:00,50.2,42.9,29.94,SSW,198,0.0,0.0,76,0.00,,---,0.00,VWS V12.07,2013-02-08 02:10:00,
2013-02-07 18:15:00,50.2,42.6,29.94,SSW,198,0.0,0.0,75,0.00,,---,0.00,VWS V12.07,2013-02-08 02:15:00,
2013-02-07 18:20:00,50.1,42.5,29.94,South,185,0.0,1.0,75,0.00,,---,0.00,VWS V12.07,2013-02-08 02:20:00,
2013-02-07 18:30:00,50.1,42.5,29.94,South,190,2.0,2.0,75,0.00,,---,0.00,VWS V12.07,2013-02-08 02:30:00,
2013-02-07 18:35:00,49.8,41.9,29.94,South,177,0.0,5.0,74,0.00,,---,0.00,VWS V12.07,2013-02-08 02:35:00,
2013-02-07 18:40:00,49.8,41.9,29.94,SSW,198,0.0,5.0,74,0.00,,---,0.00,VWS V12.07,2013-02-08 02:40:00,
2013-02-07 18:50:00,49.6,41.7,29.94,SSE,161,0.0,5.0,74,0.00,,---,0.00,VWS V12.07,2013-02-08 02:50:00,
2013-02-07 18:55:00,49.6,41.7,29.92,SSE,168,1.0,5.0,74,0.00,,---,0.00,VWS V12.07,2013-02-08 02:55:00,
2013-02-07 19:00:00,49.6,41.7,29.92,South,190,0.0,5.0,74,0.00,,---,0.00,VWS V12.07,2013-02-08 03:00:00,
2013-02-07 19:05:00,49.5,41.6,29.92,SSW,193,0.0,5.0,74,0.00,,---,0.00,VWS V12.07,2013-02-08 03:05:00,
2013-02-07 19:10:00,49.5,41.6,29.92,SSW,197,0.0,0.0,74,0.00,,---,0.00,VWS V12.07,2013-02-08 03:10:00,
2013-02-07 19:15:00,49.4,41.5,29.92,SSW,198,0.0,0.0,74,0.00,,---,0.00,VWS V12.07,2013-02-08 03:15:00,
2013-02-07 19:20:00,49.2,41.3,29.92,SSW,192,0.0,1.0,74,0.00,,---,0.00,VWS V12.07,2013-02-08 03:20:00,
2013-02-07 19:25:00,49.1,41.2,29.93,SSW,212,3.0,4.0,74,0.00,,---,0.00,VWS V12.07,2013-02-08 03:25:00,
2013-02-07 19:30:00,48.9,40.6,29.93,SW,215,1.0,6.0,73,0.00,,---,0.00,VWS V12.07,2013-02-08 03:30:00,
2013-02-07 19:35:00,48.8,40.9,29.93,SSW,210,0.0,6.0,74,0.00,,---,0.00,VWS V12.07,2013-02-08 03:35:00,
2013-02-07 19:40:00,48.8,40.9,29.92,SSW,210,0.0,0.0,74,0.00,,---,0.00,VWS V12.07,2013-02-08 03:40:00,
2013-02-07 19:45:00,48.6,40.3,29.92,South,188,0.0,5.0,73,0.00,,---,0.00,VWS V12.07,2013-02-08 03:45:00,
2013-02-07 19:50:00,48.5,39.9,29.92,SW,236,1.0,7.0,72,0.00,,---,0.00,VWS V12.07,2013-02-08 03:50:00,
2013-02-07 19:55:00,48.5,39.9,29.93,SW,234,0.0,7.0,72,0.00,,---,0.00,VWS V12.07,2013-02-08 03:55:00,
2013-02-07 20:00:00,48.5,40.2,29.93,SW,229,0.0,7.0,73,0.00,,---,0.00,VWS V12.07,2013-02-08 04:00:00,
2013-02-07 20:05:00,48.5,40.2,29.93,SSW,203,0.0,7.0,73,0.00,,---,0.00,VWS V12.07,2013-02-08 04:05:00,
2013-02-07 20:10:00,48.5,39.9,29.92,SSW,203,0.0,0.0,72,0.00,,---,0.00,VWS V12.07,2013-02-08 04:10:00,
2013-02-07 20:15:00,48.3,39.7,29.92,South,178,0.0,4.0,72,0.00,,---,0.00,VWS V12.07,2013-02-08 04:15:00,
2013-02-07 20:20:00,48.3,39.7,29.92,South,178,0.0,4.0,72,0.00,,---,0.00,VWS V12.07,2013-02-08 04:20:00,
2013-02-07 20:25:00,48.3,40.1,29.92,South,173,0.0,5.0,73,0.00,,---,0.00,VWS V12.07,2013-02-08 04:25:00,
2013-02-07 20:30:00,48.5,40.2,29.92,South,178,0.0,5.0,73,0.00,,---,0.00,VWS V12.07,2013-02-08 04:30:00,
2013-02-07 20:35:00,48.3,40.1,29.92,SW,221,0.0,5.0,73,0.00,,---,0.00,VWS V12.07,2013-02-08 04:35:00,
2013-02-07 20:40:00,48.3,40.1,29.93,SSW,193,0.0,4.0,73,0.00,,---,0.00,VWS V12.07,2013-02-08 04:40:00,
2013-02-07 20:45:00,48.2,40.0,29.93,SW,219,0.0,6.0,73,0.00,,---,0.00,VWS V12.07,2013-02-08 04:45:00,
2013-02-07 20:50:00,48.2,40.0,29.93,SW,220,0.0,6.0,73,0.00,,---,0.00,VWS V12.07,2013-02-08 04:50:00,
2013-02-07 20:55:00,48.2,40.0,29.92,SSW,196,0.0,6.0,73,0.00,,---,0.00,VWS V12.07,2013-02-08 04:55:00,
2013-02-07 21:00:00,48.0,39.4,29.92,SSW,196,0.0,6.0,72,0.00,,---,0.00,VWS V12.07,2013-02-08 05:00:00,
2013-02-07 21:05:00,48.0,39.8,29.92,SSW,196,0.0,6.0,73,0.00,,---,0.00,VWS V12.07,2013-02-08 05:05:00,
2013-02-07 21:10:00,48.0,39.8,29.92,South,190,0.0,0.0,73,0.00,,---,0.00,VWS V12.07,2013-02-08 05:10:00,
2013-02-07 21:15:00,47.9,39.3,29.92,ESE,108,0.0,0.0,72,0.00,,---,0.00,VWS V12.07,2013-02-08 05:15:00,
2013-02-07 21:20:00,47.7,39.1,29.92,East,101,0.0,1.0,72,0.00,,---,0.00,VWS V12.07,2013-02-08 05:20:00,
2013-02-07 21:25:00,47.6,39.0,29.90,East,82,0.0,1.0,72,0.00,,---,0.00,VWS V12.07,2013-02-08 05:25:00,
2013-02-07 21:30:00,47.6,39.0,29.90,East,82,0.0,1.0,72,0.00,,---,0.00,VWS V12.07,2013-02-08 05:30:00,
2013-02-07 21:35:00,47.4,38.8,29.90,East,82,0.0,1.0,72,0.00,,---,0.00,VWS V12.07,2013-02-08 05:35:00,
2013-02-07 21:40:00,47.1,38.5,29.91,East,82,0.0,0.0,72,0.00,,---,0.00,VWS V12.07,2013-02-08 05:40:00,
2013-02-07 21:45:00,47.0,38.8,29.91,East,82,0.0,0.0,73,0.00,,---,0.00,VWS V12.07,2013-02-08 05:45:00,
2013-02-07 21:50:00,46.8,38.6,29.91,East,82,0.0,0.0,73,0.00,,---,0.00,VWS V12.07,2013-02-08 05:50:00,
2013-02-07 21:55:00,46.7,38.9,29.92,East,82,0.0,0.0,74,0.00,,---,0.00,VWS V12.07,2013-02-08 05:55:00,
2013-02-07 22:00:00,46.7,38.9,29.92,East,82,0.0,0.0,74,0.00,,---,0.00,VWS V12.07,2013-02-08 06:00:00,
2013-02-07 22:05:00,46.5,38.7,29.92,East,82,0.0,0.0,74,0.00,,---,0.00,VWS V12.07,2013-02-08 06:05:00,
2013-02-07 22:10:00,46.5,38.7,29.91,East,82,0.0,0.0,74,0.00,,---,0.00,VWS V12.07,2013-02-08 06:10:00,
2013-02-07 22:15:00,46.4,38.6,29.91,East,82,0.0,0.0,74,0.00,,---,0.00,VWS V12.07,2013-02-08 06:15:00,
2013-02-07 22:20:00,46.4,38.6,29.91,East,82,0.0,0.0,74,0.00,,---,0.00,VWS V12.07,2013-02-08 06:20:00,
2013-02-07 22:25:00,46.4,38.6,29.90,East,82,0.0,0.0,74,0.00,,---,0.00,VWS V12.07,2013-02-08 06:25:00,
2013-02-07 22:30:00,46.4,38.6,29.90,East,82,0.0,0.0,74,0.00,,---,0.00,VWS V12.07,2013-02-08 06:30:00,
2013-02-07 22:35:00,46.4,38.6,29.90,East,82,0.0,0.0,74,0.00,,---,0.00,VWS V12.07,2013-02-08 06:35:00,
2013-02-07 22:40:00,46.4,38.6,29.90,East,82,0.0,1.0,74,0.00,,---,0.00,VWS V12.07,2013-02-08 06:40:00,
2013-02-07 22:45:00,46.7,38.9,29.90,East,85,0.0,4.0,74,0.00,,---,0.00,VWS V12.07,2013-02-08 06:45:00,
2013-02-07 22:50:00,47.0,38.8,29.90,East,88,0.0,4.0,73,0.00,,---,0.00,VWS V12.07,2013-02-08 06:50:00,
2013-02-07 22:55:00,47.1,38.5,29.90,East,88,0.0,4.0,72,0.00,,---,0.00,VWS V12.07,2013-02-08 06:55:00,
2013-02-07 23:00:00,47.1,38.5,29.90,East,88,0.0,4.0,72,0.00,,---,0.00,VWS V12.07,2013-02-08 07:00:00,
2013-02-07 23:05:00,47.1,38.5,29.90,East,88,0.0,4.0,72,0.00,,---,0.00,VWS V12.07,2013-02-08 07:05:00,
2013-02-07 23:10:00,47.0,38.8,29.89,East,88,0.0,1.0,73,0.00,,---,0.00,VWS V12.07,2013-02-08 07:10:00,
2013-02-07 23:15:00,47.0,38.8,29.89,East,88,0.0,1.0,73,0.00,,---,0.00,VWS V12.07,2013-02-08 07:15:00,
2013-02-07 23:20:00,46.8,39.0,29.89,East,88,0.0,1.0,74,0.00,,---,0.00,VWS V12.07,2013-02-08 07:20:00,
2013-02-07 23:25:00,46.7,38.9,29.89,East,88,0.0,1.0,74,0.00,,---,0.00,VWS V12.07,2013-02-08 07:25:00,
2013-02-07 23:30:00,46.8,39.0,29.89,East,88,0.0,3.0,74,0.00,,---,0.00,VWS V12.07,2013-02-08 07:30:00,
2013-02-07 23:35:00,46.8,39.0,29.89,East,87,0.0,3.0,74,0.00,,---,0.00,VWS V12.07,2013-02-08 07:35:00,
2013-02-07 23:40:00,46.8,39.0,29.89,East,87,0.0,0.0,74,0.00,,---,0.00,VWS V12.07,2013-02-08 07:40:00,
2013-02-07 23:45:00,47.0,39.2,29.89,East,98,2.0,3.0,74,0.00,,---,0.00,VWS V12.07,2013-02-08 07:45:00,
2013-02-07 23:50:00,47.1,38.9,29.89,East,86,0.0,3.0,73,0.00,,---,0.00,VWS V12.07,2013-02-08 07:50:00,
2013-02-07 23:55:00,47.1,38.5,29.88,East,86,0.0,3.0,72,0.00,,---,0.00,VWS V12.07,2013-02-08 07:55:00,